Year,Month,Day,Hour,Minute,Value (Times are PST for temperature in C)
2015,01,31,00,00,3.30
2015,01,31,00,01,3.30
2015,01,31,00,02,3.30
2015,01,31,00,03,3.30
2015,01,31,00,04,3.30
2015,01,31,00,05,3.30
2015,01,31,00,06,3.30
2015,01,31,00,07,3.30
2015,01,31,00,08,3.30
2015,01,31,00,09,3.20
2015,01,31,00,10,3.30
2015,01,31,00,11,3.30
2015,01,31,00,12,3.30
2015,01,31,00,13,3.30
2015,01,31,00,14,3.30
2015,01,31,00,15,3.30
2015,01,31,00,16,3.40
2015,01,31,00,17,3.40
2015,01,31,00,18,3.40
2015,01,31,00,19,3.40
2015,01,31,00,20,3.40
2015,01,31,00,21,3.40
2015,01,31,00,22,3.40
2015,01,31,00,23,3.50
2015,01,31,00,24,3.50
2015,01,31,00,25,3.60
2015,01,31,00,26,3.70
2015,01,31,00,27,3.70
2015,01,31,00,28,3.70
2015,01,31,00,29,3.80
2015,01,31,00,30,3.80
2015,01,31,00,31,3.80
2015,01,31,00,32,3.80
2015,01,31,00,33,3.80
2015,01,31,00,34,3.80
2015,01,31,00,35,3.80
2015,01,31,00,36,3.80
2015,01,31,00,37,3.80
2015,01,31,00,38,3.80
2015,01,31,00,39,3.80
2015,01,31,00,40,3.80
2015,01,31,00,41,3.80
2015,01,31,00,42,3.80
2015,01,31,00,43,3.80
2015,01,31,00,44,3.80
2015,01,31,00,45,3.80
2015,01,31,00,46,3.80
2015,01,31,00,47,3.80
2015,01,31,00,48,3.80
2015,01,31,00,49,3.80
2015,01,31,00,50,3.80
2015,01,31,00,51,3.80
2015,01,31,00,52,3.80
2015,01,31,00,53,3.80
2015,01,31,00,54,3.80
2015,01,31,00,55,3.90
2015,01,31,00,56,3.90
2015,01,31,00,57,3.90
2015,01,31,00,58,3.90
2015,01,31,00,59,3.90
2015,01,31,01,00,3.90
2015,01,31,01,01,3.90
2015,01,31,01,02,3.90
2015,01,31,01,03,3.90
2015,01,31,01,04,3.90
2015,01,31,01,05,3.90
2015,01,31,01,06,3.90
2015,01,31,01,07,3.90
2015,01,31,01,08,3.90
2015,01,31,01,09,3.90
2015,01,31,01,10,3.90
2015,01,31,01,11,3.90
2015,01,31,01,12,3.90
2015,01,31,01,13,3.90
2015,01,31,01,14,3.90
2015,01,31,01,15,3.90
2015,01,31,01,16,3.90
2015,01,31,01,17,3.90
2015,01,31,01,18,3.90
2015,01,31,01,19,3.90
2015,01,31,01,20,3.90
2015,01,31,01,21,3.90
2015,01,31,01,22,3.90
2015,01,31,01,23,3.80
2015,01,31,01,24,3.80
2015,01,31,01,25,3.80
2015,01,31,01,26,3.70
2015,01,31,01,27,3.70
2015,01,31,01,28,3.70
2015,01,31,01,29,3.70
2015,01,31,01,30,3.70
2015,01,31,01,31,3.70
2015,01,31,01,32,3.70
2015,01,31,01,33,3.60
2015,01,31,01,34,3.60
2015,01,31,01,35,3.60
2015,01,31,01,36,3.70
2015,01,31,01,37,3.70
2015,01,31,01,38,3.70
2015,01,31,01,39,3.70
2015,01,31,01,40,3.70
2015,01,31,01,41,3.70
2015,01,31,01,42,3.70
2015,01,31,01,43,3.80
2015,01,31,01,44,3.80
2015,01,31,01,45,3.80
2015,01,31,01,46,3.80
2015,01,31,01,47,3.80
2015,01,31,01,48,3.80
2015,01,31,01,49,3.80
2015,01,31,01,50,3.80
2015,01,31,01,51,3.80
2015,01,31,01,52,3.80
2015,01,31,01,53,3.80
2015,01,31,01,54,3.80
2015,01,31,01,55,3.80
2015,01,31,01,56,3.80
2015,01,31,01,57,3.80
2015,01,31,01,58,3.80
2015,01,31,01,59,3.80
2015,01,31,02,00,3.80
2015,01,31,02,01,3.80
2015,01,31,02,02,3.80
2015,01,31,02,03,3.80
2015,01,31,02,04,3.80
2015,01,31,02,05,3.80
2015,01,31,02,06,3.80
2015,01,31,02,07,3.90
2015,01,31,02,08,3.90
2015,01,31,02,09,3.90
2015,01,31,02,10,3.90
2015,01,31,02,11,3.90
2015,01,31,02,12,3.90
2015,01,31,02,13,3.90
2015,01,31,02,14,3.90
2015,01,31,02,15,3.90
2015,01,31,02,16,3.90
2015,01,31,02,17,3.90
2015,01,31,02,18,3.90
2015,01,31,02,19,3.90
2015,01,31,02,20,3.90
2015,01,31,02,21,3.90
2015,01,31,02,22,4.00
2015,01,31,02,23,4.00
2015,01,31,02,24,3.90
2015,01,31,02,25,4.00
2015,01,31,02,26,4.00
2015,01,31,02,27,4.00
2015,01,31,02,28,4.00
2015,01,31,02,29,4.00
2015,01,31,02,30,4.00
2015,01,31,02,31,4.00
2015,01,31,02,32,4.00
2015,01,31,02,33,4.00
2015,01,31,02,34,3.90
2015,01,31,02,35,3.90
2015,01,31,02,36,3.90
2015,01,31,02,37,3.90
2015,01,31,02,38,3.80
2015,01,31,02,39,3.80
2015,01,31,02,40,3.80
2015,01,31,02,41,3.80
2015,01,31,02,42,3.80
2015,01,31,02,43,3.80
2015,01,31,02,44,3.70
2015,01,31,02,45,3.80
2015,01,31,02,46,3.70
2015,01,31,02,47,3.70
2015,01,31,02,48,3.70
2015,01,31,02,49,3.70
2015,01,31,02,50,3.70
2015,01,31,02,51,3.70
2015,01,31,02,52,3.70
2015,01,31,02,53,3.70
2015,01,31,02,54,3.70
2015,01,31,02,55,3.60
2015,01,31,02,56,3.60
2015,01,31,02,57,3.60
2015,01,31,02,58,3.60
2015,01,31,02,59,3.60
2015,01,31,03,00,3.60
2015,01,31,03,01,3.60
2015,01,31,03,02,3.60
2015,01,31,03,03,3.60
2015,01,31,03,04,3.60
2015,01,31,03,05,3.60
2015,01,31,03,06,3.60
2015,01,31,03,07,3.60
2015,01,31,03,08,3.60
2015,01,31,03,09,3.60
2015,01,31,03,10,3.60
2015,01,31,03,11,3.70
2015,01,31,03,12,3.70
2015,01,31,03,13,3.70
2015,01,31,03,14,3.70
2015,01,31,03,15,3.70
2015,01,31,03,16,3.70
2015,01,31,03,17,3.70
2015,01,31,03,18,3.70
2015,01,31,03,19,3.70
2015,01,31,03,20,3.70
2015,01,31,03,21,3.70
2015,01,31,03,22,3.70
2015,01,31,03,23,3.70
2015,01,31,03,24,3.60
2015,01,31,03,25,3.60
2015,01,31,03,26,3.60
2015,01,31,03,27,3.60
2015,01,31,03,28,3.70
2015,01,31,03,29,3.70
2015,01,31,03,30,3.70
2015,01,31,03,31,3.70
2015,01,31,03,32,3.70
2015,01,31,03,33,3.80
2015,01,31,03,34,3.80
2015,01,31,03,35,3.90
2015,01,31,03,36,3.90
2015,01,31,03,37,3.90
2015,01,31,03,38,3.80
2015,01,31,03,39,3.80
2015,01,31,03,40,3.80
2015,01,31,03,41,3.80
2015,01,31,03,42,3.80
2015,01,31,03,43,3.80
2015,01,31,03,44,3.80
2015,01,31,03,45,3.70
2015,01,31,03,46,3.70
2015,01,31,03,47,3.60
2015,01,31,03,48,3.50
2015,01,31,03,49,3.40
2015,01,31,03,50,3.40
2015,01,31,03,51,3.30
2015,01,31,03,52,3.30
2015,01,31,03,53,3.30
2015,01,31,03,54,3.30
2015,01,31,03,55,3.40
2015,01,31,03,56,3.40
2015,01,31,03,57,3.40
2015,01,31,03,58,3.40
2015,01,31,03,59,3.40
2015,01,31,04,00,3.40
2015,01,31,04,01,3.40
2015,01,31,04,02,3.40
2015,01,31,05,02,3.20
2015,01,31,05,03,3.20
2015,01,31,05,04,3.30
2015,01,31,05,05,3.30
2015,01,31,05,06,3.30
2015,01,31,05,07,3.30
2015,01,31,05,08,3.30
2015,01,31,05,09,3.30
2015,01,31,05,10,3.30
2015,01,31,05,11,3.30
2015,01,31,05,12,3.30
2015,01,31,05,13,3.40
2015,01,31,05,14,3.30
2015,01,31,05,15,3.30
2015,01,31,05,16,3.30
2015,01,31,05,17,3.30
2015,01,31,05,18,3.30
2015,01,31,05,19,3.30
2015,01,31,05,20,3.30
2015,01,31,05,21,3.30
2015,01,31,05,22,3.30
2015,01,31,05,23,3.30
2015,01,31,05,24,3.30
2015,01,31,05,25,3.30
2015,01,31,05,26,3.30
2015,01,31,05,27,3.30
2015,01,31,05,28,3.30
2015,01,31,05,29,3.40
2015,01,31,05,30,3.40
2015,01,31,05,31,3.40
2015,01,31,05,32,3.40
2015,01,31,05,33,3.40
2015,01,31,05,34,3.40
2015,01,31,05,35,3.40
2015,01,31,05,36,3.40
2015,01,31,05,37,3.40
2015,01,31,05,38,3.40
2015,01,31,05,39,3.30
2015,01,31,05,40,3.30
2015,01,31,05,41,3.30
2015,01,31,05,42,3.40
2015,01,31,05,43,3.40
2015,01,31,05,44,3.40
2015,01,31,05,45,3.40
2015,01,31,05,46,3.40
2015,01,31,05,47,3.50
2015,01,31,05,48,3.50
2015,01,31,05,49,3.50
2015,01,31,05,50,3.50
2015,01,31,05,51,3.50
2015,01,31,05,52,3.50
2015,01,31,05,53,3.40
2015,01,31,05,54,3.40
2015,01,31,05,55,3.40
2015,01,31,05,56,3.40
2015,01,31,05,57,3.40
2015,01,31,05,58,3.40
2015,01,31,05,59,3.40
2015,01,31,06,00,3.40
2015,01,31,06,01,3.40
2015,01,31,06,02,3.40
2015,01,31,06,03,3.40
2015,01,31,06,04,3.40
2015,01,31,06,05,3.40
2015,01,31,06,06,3.40
2015,01,31,06,07,3.40
2015,01,31,06,08,3.40
2015,01,31,06,09,3.50
2015,01,31,06,10,3.50
2015,01,31,06,11,3.50
2015,01,31,06,12,3.50
2015,01,31,06,13,3.60
2015,01,31,06,14,3.50
2015,01,31,06,15,3.40
2015,01,31,06,16,3.30
2015,01,31,06,17,3.20
2015,01,31,06,18,3.10
2015,01,31,06,19,3.00
2015,01,31,06,20,2.90
2015,01,31,06,21,2.80
2015,01,31,06,22,2.70
2015,01,31,06,23,2.60
2015,01,31,06,24,2.60
2015,01,31,06,25,2.60
2015,01,31,06,26,2.60
2015,01,31,06,27,2.60
2015,01,31,06,28,2.60
2015,01,31,06,29,2.60
2015,01,31,06,30,2.60
2015,01,31,06,31,2.60
2015,01,31,06,32,2.50
2015,01,31,06,33,2.50
2015,01,31,06,34,2.50
2015,01,31,06,35,2.50
2015,01,31,06,36,2.50
2015,01,31,06,37,2.50
2015,01,31,06,38,2.50
2015,01,31,06,39,2.50
2015,01,31,06,40,2.40
2015,01,31,06,41,2.40
2015,01,31,06,42,2.40
2015,01,31,06,43,2.40
2015,01,31,06,44,2.40
2015,01,31,06,45,2.40
2015,01,31,06,46,2.50
2015,01,31,06,47,2.50
2015,01,31,06,48,2.50
2015,01,31,06,49,2.60
2015,01,31,06,50,2.60
2015,01,31,06,51,2.70
2015,01,31,06,52,2.70
2015,01,31,06,53,2.80
2015,01,31,06,54,2.80
2015,01,31,06,55,2.90
2015,01,31,06,56,2.90
2015,01,31,06,57,2.90
2015,01,31,06,58,3.00
2015,01,31,06,59,3.00
2015,01,31,07,00,3.00
2015,01,31,07,01,3.00
2015,01,31,07,02,3.00
2015,01,31,07,03,3.00
2015,01,31,07,04,3.10
2015,01,31,07,05,3.00
2015,01,31,07,06,3.10
2015,01,31,07,07,3.10
2015,01,31,07,08,3.10
2015,01,31,07,09,3.10
2015,01,31,07,10,3.00
2015,01,31,07,11,3.00
2015,01,31,07,12,3.00
2015,01,31,07,13,3.00
2015,01,31,07,14,3.00
2015,01,31,07,15,3.00
2015,01,31,07,16,3.10
2015,01,31,07,17,3.10
2015,01,31,07,18,3.10
2015,01,31,07,19,3.20
2015,01,31,07,20,3.20
2015,01,31,07,21,3.30
2015,01,31,07,22,3.30
2015,01,31,07,23,3.30
2015,01,31,07,24,3.30
2015,01,31,07,25,3.30
2015,01,31,07,26,3.20
2015,01,31,07,27,3.10
2015,01,31,07,28,3.00
2015,01,31,07,29,2.90
2015,01,31,07,30,2.90
2015,01,31,07,31,2.90
2015,01,31,07,32,2.80
2015,01,31,07,33,2.80
2015,01,31,07,34,2.80
2015,01,31,07,35,2.80
2015,01,31,07,36,2.80
2015,01,31,07,37,2.80
2015,01,31,07,38,2.80
2015,01,31,07,39,2.80
2015,01,31,07,40,2.80
2015,01,31,07,41,2.80
2015,01,31,07,42,2.80
2015,01,31,07,43,2.80
2015,01,31,07,44,2.70
2015,01,31,07,45,2.70
2015,01,31,07,46,2.70
2015,01,31,07,47,2.70
2015,01,31,07,48,2.70
2015,01,31,07,49,2.70
2015,01,31,07,50,2.70
2015,01,31,07,51,2.70
2015,01,31,07,52,2.70
2015,01,31,07,53,2.70
2015,01,31,07,54,2.70
2015,01,31,07,55,2.70
2015,01,31,07,56,2.60
2015,01,31,07,57,2.60
2015,01,31,07,58,2.60
2015,01,31,07,59,2.60
2015,01,31,08,00,2.60
2015,01,31,08,01,2.70
2015,01,31,08,02,2.70
2015,01,31,08,03,2.70
2015,01,31,08,04,2.60
2015,01,31,08,05,2.60
2015,01,31,08,06,2.60
2015,01,31,08,07,2.60
2015,01,31,08,08,2.60
2015,01,31,08,09,2.60
2015,01,31,08,10,2.60
2015,01,31,08,11,2.60
2015,01,31,08,12,2.60
2015,01,31,08,13,2.60
2015,01,31,08,14,2.60
2015,01,31,08,15,2.60
2015,01,31,08,16,2.70
2015,01,31,08,17,2.70
2015,01,31,08,18,2.70
2015,01,31,08,19,2.70
2015,01,31,08,20,2.70
2015,01,31,08,21,2.70
2015,01,31,08,22,2.70
2015,01,31,08,23,2.70
2015,01,31,08,24,2.80
2015,01,31,08,25,2.80
2015,01,31,08,26,2.80
2015,01,31,08,27,2.80
2015,01,31,08,28,2.80
2015,01,31,08,29,2.80
2015,01,31,08,30,2.80
2015,01,31,08,31,2.80
2015,01,31,08,32,2.80
2015,01,31,08,33,2.90
2015,01,31,08,34,2.90
2015,01,31,08,35,2.90
2015,01,31,08,36,2.90
2015,01,31,08,37,2.90
2015,01,31,08,38,2.90
2015,01,31,08,39,2.80
2015,01,31,08,40,2.80
2015,01,31,08,41,2.80
2015,01,31,08,42,2.80
2015,01,31,08,43,2.80
2015,01,31,08,44,2.80
2015,01,31,08,45,2.80
2015,01,31,08,46,2.80
2015,01,31,08,47,2.80
2015,01,31,08,48,2.80
2015,01,31,08,49,2.80
2015,01,31,08,50,2.80
2015,01,31,08,51,2.80
2015,01,31,08,52,2.80
2015,01,31,08,53,2.80
2015,01,31,08,54,2.80
2015,01,31,08,55,2.80
2015,01,31,08,56,2.80
2015,01,31,08,57,2.80
2015,01,31,08,58,2.80
2015,01,31,08,59,2.80
2015,01,31,09,00,2.80
2015,01,31,09,01,2.80
2015,01,31,09,02,2.80
2015,01,31,09,03,2.80
2015,01,31,09,04,2.80
2015,01,31,09,05,2.80
2015,01,31,09,06,2.80
2015,01,31,09,07,2.80
2015,01,31,09,08,2.80
2015,01,31,09,09,2.80
2015,01,31,09,10,2.80
2015,01,31,09,11,2.90
2015,01,31,09,12,2.90
2015,01,31,09,13,2.90
2015,01,31,09,14,2.90
2015,01,31,09,15,2.90
2015,01,31,09,16,2.90
2015,01,31,09,17,2.90
2015,01,31,09,18,2.90
2015,01,31,09,19,2.90
2015,01,31,09,20,2.90
2015,01,31,09,21,2.90
2015,01,31,09,22,2.90
2015,01,31,09,23,2.90
2015,01,31,09,24,2.90
2015,01,31,09,25,2.90
2015,01,31,09,26,2.90
2015,01,31,09,27,3.00
2015,01,31,09,28,3.00
2015,01,31,09,29,3.00
2015,01,31,09,30,3.10
2015,01,31,09,31,3.10
2015,01,31,09,32,3.10
2015,01,31,09,33,3.10
2015,01,31,09,34,3.10
2015,01,31,09,35,3.10
2015,01,31,09,36,3.10
2015,01,31,09,37,3.20
2015,01,31,09,38,3.20
2015,01,31,09,39,3.20
2015,01,31,09,40,3.20
2015,01,31,09,41,3.20
2015,01,31,09,42,3.20
2015,01,31,09,43,3.20
2015,01,31,09,44,3.20
2015,01,31,09,45,3.30
2015,01,31,09,46,3.30
2015,01,31,09,47,3.30
2015,01,31,09,48,3.30
2015,01,31,09,49,3.30
2015,01,31,09,50,3.30
2015,01,31,09,51,3.30
2015,01,31,09,52,3.40
2015,01,31,09,53,3.40
2015,01,31,09,54,3.40
2015,01,31,09,55,3.40
2015,01,31,09,56,3.40
2015,01,31,09,57,3.40
2015,01,31,09,58,3.40
2015,01,31,09,59,3.50
2015,01,31,10,00,3.50
2015,01,31,10,01,3.50
2015,01,31,10,02,3.50
2015,01,31,10,03,3.50
2015,01,31,10,04,3.50
2015,01,31,10,05,3.60
2015,01,31,10,06,3.60
2015,01,31,10,07,3.60
2015,01,31,10,08,3.60
2015,01,31,10,09,3.60
2015,01,31,10,10,3.60
2015,01,31,10,11,3.60
2015,01,31,10,12,3.60
2015,01,31,10,13,3.70
2015,01,31,10,14,3.70
2015,01,31,10,15,3.70
2015,01,31,10,16,3.70
2015,01,31,10,17,3.70
2015,01,31,10,18,3.70
2015,01,31,10,19,3.70
2015,01,31,10,20,3.80
2015,01,31,10,21,3.80
2015,01,31,10,22,3.80
2015,01,31,10,23,3.80
2015,01,31,10,24,3.80
2015,01,31,10,25,3.80
2015,01,31,10,26,3.90
2015,01,31,10,27,3.90
2015,01,31,10,28,3.90
2015,01,31,10,29,3.90
2015,01,31,10,30,3.90
2015,01,31,10,31,3.90
2015,01,31,10,32,4.00
2015,01,31,10,33,4.00
2015,01,31,10,34,4.00
2015,01,31,10,35,4.00
2015,01,31,10,36,4.10
2015,01,31,10,37,4.10
2015,01,31,10,38,4.10
2015,01,31,10,39,4.10
2015,01,31,10,40,4.10
2015,01,31,10,41,4.10
2015,01,31,10,42,4.20
2015,01,31,10,43,4.20
2015,01,31,10,44,4.20
2015,01,31,10,45,4.20
2015,01,31,10,46,4.20
2015,01,31,10,47,4.20
2015,01,31,10,48,4.30
2015,01,31,10,49,4.30
2015,01,31,10,50,4.30
2015,01,31,10,51,4.30
2015,01,31,10,52,4.30
2015,01,31,10,53,4.30
2015,01,31,10,54,4.30
2015,01,31,10,55,4.30
2015,01,31,10,56,4.30
2015,01,31,10,57,4.30
2015,01,31,10,58,4.40
2015,01,31,10,59,4.40
2015,01,31,11,00,4.40
2015,01,31,11,01,4.40
2015,01,31,11,02,4.40
2015,01,31,11,03,4.40
2015,01,31,11,04,4.50
2015,01,31,11,05,4.50
2015,01,31,11,06,4.60
2015,01,31,11,07,4.60
2015,01,31,11,08,4.70
2015,01,31,11,09,4.70
2015,01,31,11,10,4.70
2015,01,31,11,11,4.70
2015,01,31,11,12,4.70
2015,01,31,11,13,4.70
2015,01,31,11,14,4.70
2015,01,31,11,15,4.70
2015,01,31,11,16,4.70
2015,01,31,11,17,4.80
2015,01,31,11,18,4.80
2015,01,31,11,19,4.80
2015,01,31,11,20,4.80
2015,01,31,11,21,4.80
2015,01,31,11,22,4.80
2015,01,31,11,23,4.90
2015,01,31,11,24,4.90
2015,01,31,11,25,4.90
2015,01,31,11,26,4.90
2015,01,31,11,27,4.90
2015,01,31,11,28,4.90
2015,01,31,11,29,5.00
2015,01,31,11,30,5.00
2015,01,31,11,31,5.00
2015,01,31,11,32,5.00
2015,01,31,11,33,5.10
2015,01,31,11,34,5.10
2015,01,31,11,35,5.10
2015,01,31,11,36,5.10
2015,01,31,11,37,5.10
2015,01,31,11,38,5.10
2015,01,31,11,39,5.10
2015,01,31,11,40,5.10
2015,01,31,11,41,5.10
2015,01,31,11,42,5.10
2015,01,31,11,43,5.10
2015,01,31,11,44,5.10
2015,01,31,11,45,5.10
2015,01,31,11,46,5.10
2015,01,31,11,47,5.10
2015,01,31,11,48,5.10
2015,01,31,11,49,5.10
2015,01,31,11,50,5.10
2015,01,31,11,51,5.10
2015,01,31,11,52,5.20
2015,01,31,11,53,5.20
2015,01,31,11,54,5.20
2015,01,31,11,55,5.20
2015,01,31,11,56,5.20
2015,01,31,11,57,5.20
2015,01,31,11,58,5.20
2015,01,31,11,59,5.20
2015,01,31,12,00,5.10
2015,01,31,12,01,5.10
2015,01,31,12,02,5.10
2015,01,31,12,03,5.10
2015,01,31,12,04,5.10
2015,01,31,12,05,5.10
2015,01,31,12,06,5.20
2015,01,31,12,07,5.20
2015,01,31,12,08,5.20
2015,01,31,12,09,5.20
2015,01,31,12,10,5.20
2015,01,31,12,11,5.10
2015,01,31,12,12,5.10
2015,01,31,12,13,5.10
2015,01,31,12,14,5.10
2015,01,31,12,15,5.10
2015,01,31,12,16,5.20
2015,01,31,12,17,5.20
2015,01,31,12,18,5.20
2015,01,31,12,19,5.20
2015,01,31,12,20,5.20
2015,01,31,12,21,5.20
2015,01,31,12,22,5.20
2015,01,31,12,23,5.20
2015,01,31,12,24,5.20
2015,01,31,12,25,5.20
2015,01,31,12,26,5.20
2015,01,31,12,27,5.20
2015,01,31,12,28,5.20
2015,01,31,12,29,5.20
2015,01,31,12,30,5.20
2015,01,31,12,31,5.20
2015,01,31,12,32,5.20
2015,01,31,12,33,5.20
2015,01,31,12,34,5.10
2015,01,31,12,35,5.10
2015,01,31,12,36,5.10
2015,01,31,12,37,5.10
2015,01,31,12,38,5.10
2015,01,31,12,39,5.10
2015,01,31,12,40,5.10
2015,01,31,12,41,5.20
2015,01,31,12,42,5.20
2015,01,31,12,43,5.20
2015,01,31,12,44,5.20
2015,01,31,12,45,5.10
2015,01,31,12,46,5.10
2015,01,31,12,47,5.10
2015,01,31,12,48,5.20
2015,01,31,12,49,5.20
2015,01,31,12,50,5.20
2015,01,31,12,51,5.20
2015,01,31,12,52,5.20
2015,01,31,12,53,5.10
2015,01,31,12,54,5.10
2015,01,31,12,55,5.10
2015,01,31,12,56,5.10
2015,01,31,12,57,5.20
2015,01,31,12,58,5.20
2015,01,31,12,59,5.20
2015,01,31,13,00,5.20
2015,01,31,13,01,5.20
2015,01,31,13,02,5.10
2015,01,31,13,03,5.10
2015,01,31,13,04,5.10
2015,01,31,13,05,5.10
2015,01,31,13,06,5.10
2015,01,31,13,07,5.20
2015,01,31,13,08,5.20
2015,01,31,13,09,5.20
2015,01,31,13,10,5.20
2015,01,31,13,11,5.20
2015,01,31,13,12,5.20
2015,01,31,13,13,5.20
2015,01,31,13,14,5.20
2015,01,31,13,15,5.20
2015,01,31,13,16,5.20
2015,01,31,13,17,5.20
2015,01,31,13,18,5.20
2015,01,31,13,19,5.20
2015,01,31,13,20,5.20
2015,01,31,13,21,5.20
2015,01,31,13,22,5.20
2015,01,31,13,23,5.20
2015,01,31,13,24,5.20
2015,01,31,13,25,5.20
2015,01,31,13,26,5.20
2015,01,31,13,27,5.20
2015,01,31,13,28,5.20
2015,01,31,13,29,5.20
2015,01,31,13,30,5.20
2015,01,31,13,31,5.20
2015,01,31,13,32,5.20
2015,01,31,13,33,5.20
2015,01,31,13,34,5.20
2015,01,31,13,35,5.20
2015,01,31,13,36,5.20
2015,01,31,13,37,5.20
2015,01,31,13,38,5.20
2015,01,31,13,39,5.20
2015,01,31,13,40,5.20
2015,01,31,13,41,5.20
2015,01,31,13,42,5.20
2015,01,31,13,43,5.20
2015,01,31,13,44,5.20
2015,01,31,13,45,5.20
2015,01,31,13,46,5.20
2015,01,31,13,47,5.20
2015,01,31,13,48,5.20
2015,01,31,13,49,5.20
2015,01,31,13,50,5.20
2015,01,31,13,51,5.30
2015,01,31,13,52,5.30
2015,01,31,13,53,5.30
2015,01,31,13,54,5.30
2015,01,31,13,55,5.30
2015,01,31,13,56,5.30
2015,01,31,13,57,5.30
2015,01,31,13,58,5.30
2015,01,31,13,59,5.30
2015,01,31,14,00,5.30
2015,01,31,14,01,5.30
2015,01,31,14,02,5.30
2015,01,31,14,03,5.30
2015,01,31,14,04,5.30
2015,01,31,14,05,5.30
2015,01,31,14,06,5.30
2015,01,31,14,07,5.30
2015,01,31,14,08,5.30
2015,01,31,14,09,5.30
2015,01,31,14,10,5.30
2015,01,31,14,11,5.30
2015,01,31,14,12,5.30
2015,01,31,14,13,5.30
2015,01,31,14,14,5.30
2015,01,31,14,15,5.30
2015,01,31,14,16,5.30
2015,01,31,14,17,5.30
2015,01,31,14,18,5.30
2015,01,31,14,19,5.30
2015,01,31,14,20,5.30
2015,01,31,14,21,5.30
2015,01,31,14,22,5.30
2015,01,31,14,23,5.30
2015,01,31,14,24,5.30
2015,01,31,14,25,5.30
2015,01,31,14,26,5.30
2015,01,31,14,27,5.30
2015,01,31,14,28,5.30
2015,01,31,14,29,5.20
2015,01,31,14,30,5.20
2015,01,31,14,31,5.20
2015,01,31,14,32,5.20
2015,01,31,14,33,5.20
2015,01,31,14,34,5.20
2015,01,31,14,35,5.20
2015,01,31,14,36,5.20
2015,01,31,14,37,5.20
2015,01,31,14,38,5.20
2015,01,31,14,39,5.30
2015,01,31,14,40,5.30
2015,01,31,14,41,5.30
2015,01,31,14,42,5.30
2015,01,31,14,43,5.30
2015,01,31,14,44,5.40
2015,01,31,14,45,5.40
2015,01,31,14,46,5.40
2015,01,31,14,47,5.40
2015,01,31,14,48,5.40
2015,01,31,14,49,5.40
2015,01,31,14,50,5.40
2015,01,31,14,51,5.40
2015,01,31,14,52,5.40
2015,01,31,14,53,5.40
2015,01,31,14,54,5.40
2015,01,31,14,55,5.30
2015,01,31,14,56,5.30
2015,01,31,14,57,5.30
2015,01,31,14,58,5.30
2015,01,31,14,59,5.30
2015,01,31,15,00,5.30
2015,01,31,15,01,5.20
2015,01,31,15,02,5.20
2015,01,31,15,03,5.20
2015,01,31,15,04,5.20
2015,01,31,15,05,5.20
2015,01,31,15,06,5.20
2015,01,31,15,07,5.20
2015,01,31,15,08,5.20
2015,01,31,15,09,5.20
2015,01,31,15,10,5.20
2015,01,31,15,11,5.20
2015,01,31,15,12,5.20
2015,01,31,15,13,5.20
2015,01,31,15,14,5.20
2015,01,31,15,15,5.20
2015,01,31,15,16,5.20
2015,01,31,15,17,5.20
2015,01,31,15,18,5.20
2015,01,31,15,19,5.20
2015,01,31,15,20,5.20
2015,01,31,15,21,5.20
2015,01,31,15,22,5.20
2015,01,31,15,23,5.20
2015,01,31,15,24,5.30
2015,01,31,15,25,5.30
2015,01,31,15,26,5.30
2015,01,31,15,27,5.30
2015,01,31,15,28,5.30
2015,01,31,15,29,5.30
2015,01,31,15,30,5.30
2015,01,31,15,31,5.30
2015,01,31,15,32,5.30
2015,01,31,15,33,5.30
2015,01,31,15,34,5.30
2015,01,31,15,35,5.30
2015,01,31,15,36,5.30
2015,01,31,15,37,5.30
2015,01,31,15,38,5.30
2015,01,31,15,39,5.30
2015,01,31,15,40,5.30
2015,01,31,15,41,5.30
2015,01,31,15,42,5.30
2015,01,31,15,43,5.30
2015,01,31,15,44,5.30
2015,01,31,15,45,5.30
2015,01,31,15,46,5.30
2015,01,31,15,47,5.30
2015,01,31,15,48,5.30
2015,01,31,15,49,5.30
2015,01,31,15,50,5.30
2015,01,31,15,51,5.30
2015,01,31,15,52,5.30
2015,01,31,15,53,5.30
2015,01,31,15,54,5.30
2015,01,31,15,55,5.30
2015,01,31,15,56,5.30
2015,01,31,15,57,5.30
2015,01,31,15,58,5.40
2015,01,31,15,59,5.40
2015,01,31,16,00,5.40
2015,01,31,16,01,5.40
2015,01,31,16,02,5.40
2015,01,31,16,03,5.50
2015,01,31,16,04,5.50
2015,01,31,16,05,5.50
2015,01,31,16,06,5.50
2015,01,31,16,07,5.50
2015,01,31,16,08,5.50
2015,01,31,16,09,5.60
2015,01,31,16,10,5.60
2015,01,31,16,11,5.60
2015,01,31,16,12,5.60
2015,01,31,16,13,5.60
2015,01,31,16,14,5.60
2015,01,31,16,15,5.60
2015,01,31,16,16,5.60
2015,01,31,16,17,5.60
2015,01,31,16,18,5.60
2015,01,31,16,19,5.60
2015,01,31,16,20,5.60
2015,01,31,16,21,5.60
2015,01,31,16,22,5.60
2015,01,31,16,23,5.60
2015,01,31,16,24,5.60
2015,01,31,16,25,5.60
2015,01,31,16,26,5.50
2015,01,31,16,27,5.50
2015,01,31,16,28,5.50
2015,01,31,16,29,5.50
2015,01,31,16,30,5.50
2015,01,31,16,31,5.50
2015,01,31,16,32,5.50
2015,01,31,16,33,5.50
2015,01,31,16,34,5.50
2015,01,31,16,35,5.50
2015,01,31,16,36,5.50
2015,01,31,16,37,5.50
2015,01,31,16,38,5.50
2015,01,31,16,39,5.50
2015,01,31,16,40,5.50
2015,01,31,16,41,5.50
2015,01,31,16,42,5.50
2015,01,31,16,43,5.50
2015,01,31,16,44,5.40
2015,01,31,16,45,5.40
2015,01,31,16,46,5.40
2015,01,31,16,47,5.40
2015,01,31,16,48,5.40
2015,01,31,16,49,5.50
2015,01,31,16,50,5.50
2015,01,31,16,51,5.50
2015,01,31,16,52,5.50
2015,01,31,16,53,5.50
2015,01,31,16,54,5.50
2015,01,31,16,55,5.50
2015,01,31,16,56,5.50
2015,01,31,16,57,5.50
2015,01,31,16,58,5.60
2015,01,31,16,59,5.50
2015,01,31,17,00,5.50
2015,01,31,17,01,5.50
2015,01,31,17,02,5.50
2015,01,31,17,03,5.50
2015,01,31,17,04,5.50
2015,01,31,17,05,5.50
2015,01,31,17,06,5.50
2015,01,31,17,07,5.50
2015,01,31,17,08,5.50
2015,01,31,17,09,5.50
2015,01,31,17,10,5.50
2015,01,31,17,11,5.50
2015,01,31,17,12,5.50
2015,01,31,17,13,5.50
2015,01,31,17,14,5.50
2015,01,31,17,15,5.40
2015,01,31,17,16,5.40
2015,01,31,17,17,5.40
2015,01,31,17,18,5.40
2015,01,31,17,19,5.40
2015,01,31,17,20,5.40
2015,01,31,17,21,5.40
2015,01,31,17,22,5.40
2015,01,31,17,23,5.40
2015,01,31,17,24,5.40
2015,01,31,17,25,5.40
2015,01,31,17,26,5.40
2015,01,31,17,27,5.40
2015,01,31,17,28,5.40
2015,01,31,17,29,5.40
2015,01,31,17,30,5.40
2015,01,31,17,31,5.40
2015,01,31,17,32,5.40
2015,01,31,17,33,5.40
2015,01,31,17,34,5.40
2015,01,31,17,35,5.40
2015,01,31,17,36,5.40
2015,01,31,17,37,5.40
2015,01,31,17,38,5.40
2015,01,31,17,39,5.40
2015,01,31,17,40,5.40
2015,01,31,17,41,5.50
2015,01,31,17,42,5.50
2015,01,31,17,43,5.50
2015,01,31,17,44,5.50
2015,01,31,17,45,5.60
2015,01,31,17,46,5.60
2015,01,31,17,47,5.60
2015,01,31,17,48,5.60
2015,01,31,17,49,5.60
2015,01,31,17,50,5.60
2015,01,31,17,51,5.60
2015,01,31,17,52,5.60
2015,01,31,17,53,5.60
2015,01,31,17,54,5.60
2015,01,31,17,55,5.60
2015,01,31,17,56,5.60
2015,01,31,17,57,5.60
2015,01,31,17,58,5.60
2015,01,31,17,59,5.60
2015,01,31,18,00,5.60
2015,01,31,18,01,5.60
2015,01,31,18,02,5.50
2015,01,31,18,03,5.50
2015,01,31,18,04,5.50
2015,01,31,18,05,5.50
2015,01,31,18,06,5.50
2015,01,31,18,07,5.50
2015,01,31,18,08,5.40
2015,01,31,18,09,5.50
2015,01,31,18,10,5.40
2015,01,31,18,11,5.50
2015,01,31,18,12,5.40
2015,01,31,18,13,5.40
2015,01,31,18,14,5.40
2015,01,31,18,15,5.40
2015,01,31,18,16,5.40
2015,01,31,18,17,5.40
2015,01,31,18,18,5.40
2015,01,31,18,19,5.40
2015,01,31,18,20,5.40
2015,01,31,18,21,5.40
2015,01,31,18,22,5.40
2015,01,31,18,23,5.40
2015,01,31,18,24,5.40
2015,01,31,18,25,5.40
2015,01,31,18,26,5.40
2015,01,31,18,27,5.40
2015,01,31,18,28,5.40
2015,01,31,18,29,5.40
2015,01,31,18,30,5.40
2015,01,31,18,31,5.40
2015,01,31,18,32,5.40
2015,01,31,18,33,5.40
2015,01,31,18,34,5.40
2015,01,31,18,35,5.40
2015,01,31,18,36,5.40
2015,01,31,18,37,5.40
2015,01,31,18,38,5.40
2015,01,31,18,39,5.40
2015,01,31,18,40,5.30
2015,01,31,18,41,5.30
2015,01,31,18,42,5.30
2015,01,31,18,43,5.30
2015,01,31,18,44,5.30
2015,01,31,18,45,5.30
2015,01,31,18,46,5.30
2015,01,31,18,47,5.30
2015,01,31,18,48,5.30
2015,01,31,18,49,5.30
2015,01,31,18,50,5.30
2015,01,31,18,51,5.30
2015,01,31,18,52,5.30
2015,01,31,18,53,5.30
2015,01,31,18,54,5.30
2015,01,31,18,55,5.30
2015,01,31,18,56,5.30
2015,01,31,18,57,5.30
2015,01,31,18,58,5.30
2015,01,31,18,59,5.30
2015,01,31,19,00,5.30
2015,01,31,19,01,5.30
2015,01,31,19,02,5.30
2015,01,31,19,03,5.30
2015,01,31,19,04,5.30
2015,01,31,19,05,5.30